Lapse_Rate
5.0 6.5 6.5 6.5 6.5 6.5 6.5 6.5 6.4 6.5 6.5 6.5 6.5 6.5 6.5 6.2 4.1 4.4 3.8 1.4 0.7 1.4 3.3 4.6 2.7 0.7 3.9 2.1 3.4 4.7 5.2 3.9 5.1 4.2 4.1 4.4 4.9 5.2 5.0 5.2 6.3 5.5 3.9 4.1
6.5 6.5 6.5 6.4 6.5 6.5 6.5 6.5 6.5 6.5 6.5 6.5 6.5 6.5 6.5 6.4 6.3 5.9 5.4 5.0 4.0 3.3 3.4 4.8 2.1 1.6 3.3 2.4 3.1 1.1 3.5 4.2 4.4 4.1 4.1 4.4 4.7 4.8 4.9 4.4 5.4 5.4 4.0 3.3
6.5 6.5 6.5 6.5 6.5 6.5 6.5 6.5 6.5 6.5 6.5 6.5 6.5 6.5 6.5 6.5 5.4 4.8 2.9 3.9 5.1 5.5 6.0 5.6 4.3 2.5 1.7 0.7 1.1 1.0 2.0 4.4 3.9 4.4 4.1 4.3 4.3 4.5 4.6 4.5 4.6 5.3 4.4 3.7
6.5 6.4 6.5 6.5 6.5 6.5 6.5 6.5 6.5 6.5 6.5 6.5 6.5 6.5 6.4 6.5 6.5 6.4 3.0 2.0 5.4 5.3 5.7 5.4 5.3 3.5 2.2 2.0 2.6 3.5 4.5 3.4 3.8 4.2 4.4 4.4 4.0 3.8 6.1 4.3 5.4 4.5 4.3 4.0
6.5 6.5 6.5 6.5 6.5 6.5 6.5 6.5 6.5 6.5 6.5 6.5 6.5 6.5 6.5 6.5 6.5 6.5 6.0 4.7 5.5 4.6 5.9 4.9 5.2 4.5 5.5 6.4 5.2 4.8 4.0 3.3 3.9 4.0 4.4 3.7 4.5 4.2 4.4 3.6 4.0 3.8 2.9 3.0
6.5 5.5 6.4 6.5 6.5 6.5 6.5 6.5 6.5 6.5 6.5 6.5 6.5 6.5 6.5 6.5 6.5 6.5 6.2 5.3 5.5 5.0 5.3 5.4 5.9 4.9 4.4 4.8 4.6 5.0 3.9 3.9 4.5 4.5 4.5 4.4 3.6 4.1 2.9 4.2 2.4 3.0 3.1 2.8
6.5 6.5 6.5 6.3 6.5 6.5 6.5 6.5 6.5 6.5 6.5 6.5 6.5 6.5 6.5 6.5 6.5 6.4 6.2 5.1 5.0 5.0 4.7 4.8 4.9 5.1 4.8 4.9 5.2 4.9 4.8 4.8 5.4 5.7 5.9 5.2 4.2 4.1 3.7 3.4 3.3 2.7 2.5 3.4
6.5 6.5 6.5 6.5 6.5 6.5 6.5 6.5 6.5 6.5 6.5 6.5 6.5 6.5 6.5 6.5 6.6 5.6 5.1 5.0 5.2 4.6 4.6 4.8 5.4 5.4 5.7 5.9 4.7 4.4 4.3 4.6 4.9 5.3 3.8 2.5 2.3 2.3 2.7 4.8 4.4 3.0 2.7 3.5
6.5 6.5 6.4 6.5 6.5 6.5 6.6 6.5 6.5 6.6 6.5 6.5 6.5 6.5 6.5 6.5 6.5 5.6 5.0 5.0 5.0 5.0 4.8 5.1 5.6 5.8 6.0 5.8 5.3 4.9 4.8 4.9 5.8 4.0 3.4 1.5 0.7 2.4 3.2 4.1 4.0 4.0 3.5 4.1
6.5 6.5 6.5 6.5 6.0 6.2 6.5 6.5 6.5 6.5 6.5 6.5 6.5 6.5 6.5 6.5 6.5 6.5 6.1 4.7 4.7 4.9 5.2 5.3 5.5 5.8 5.7 5.8 5.8 5.4 5.6 5.6 4.8 4.6 2.8 1.7 1.8 1.9 3.7 4.1 4.3 4.6 4.8 6.0
6.5 6.5 6.5 6.4 6.5 6.5 6.5 6.5 6.5 6.5 6.5 6.5 6.5 6.5 6.5 6.5 6.5 6.5 5.7 5.7 4.4 4.8 4.9 5.0 5.3 5.5 5.2 5.5 5.4 5.6 6.1 5.5 5.1 4.1 3.5 2.5 2.4 1.9 2.1 2.3 2.8 3.9 3.7 3.8
6.5 6.5 6.5 6.5 6.5 6.5 6.5 6.5 6.5 6.5 6.5 6.5 6.5 6.5 6.5 6.5 6.0 5.9 6.0 5.3 5.0 5.3 5.3 5.0 5.2 5.3 5.3 5.1 5.9 6.0 6.7 7.0 5.5 3.9 3.9 3.6 2.9 3.1 2.5 2.4 2.5 2.8 3.2 3.2
6.5 6.5 6.5 6.5 6.5 6.5 6.5 6.5 6.5 6.5 6.5 6.5 6.5 6.5 6.5 6.1 6.3 6.0 5.4 4.6 4.6 5.1 4.7 4.1 4.0 5.1 4.6 5.3 6.0 6.1 6.2 6.0 5.7 5.5 4.9 4.0 3.7 3.2 3.4 3.1 3.1 3.0 3.2 3.1
5.0 6.5 6.5 6.5 6.5 6.5 6.5 6.5 6.5 6.5 6.5 6.5 6.5 6.5 6.5 6.5 6.5 6.2 4.9 4.5 4.2 3.9 2.9 2.1 2.8 4.7 5.1 5.7 4.9 4.8 5.4 5.3 5.3 5.4 5.4 5.0 5.0 4.4 3.8 4.4 4.9 5.0 4.5 4.4
6.5 6.5 6.5 6.5 6.5 6.5 6.5 6.6 6.5 6.5 6.5 6.5 6.5 6.5 6.5 6.5 6.5 4.9 4.4 4.5 5.6 5.8 5.5 5.4 5.3 4.9 5.0 5.0 5.2 5.2 5.0 4.9 5.0 5.1 4.9 5.4 5.9 6.0 5.4 5.3 5.2 5.1 4.5 4.1
6.5 6.5 6.5 6.5 6.5 6.5 6.5 6.5 6.5 6.5 6.5 6.5 6.5 6.5 6.5 4.6 3.5 4.5 4.7 5.3 5.1 5.0 6.1 6.1 6.0 5.4 5.4 5.4 5.0 5.0 4.3 4.4 4.1 4.4 5.5 5.5 5.1 5.1 5.0 5.1 5.2 5.1 5.3 5.4
6.5 6.5 6.5 6.5 6.5 6.5 6.5 6.5 6.5 6.5 6.5 6.5 6.5 6.5 6.6 6.5 6.0 4.8 4.5 5.5 5.3 5.4 5.5 5.8 5.6 5.0 4.8 4.7 4.6 4.1 4.2 4.2 4.6 4.9 5.3 5.5 5.4 4.8 4.3 4.0 4.1 4.6 4.9 4.8
6.5 6.5 6.5 6.5 6.5 6.5 6.5 6.5 6.5 6.5 6.5 6.5 6.5 6.5 6.3 5.3 5.0 4.4 4.6 5.0 5.1 5.4 5.5 5.1 5.1 4.8 4.7 4.7 4.9 4.5 4.7 4.8 5.1 5.5 5.4 5.6 5.9 5.9 5.3 4.6 4.3 4.2 4.4 4.5
6.5 6.6 6.5 6.5 6.5 6.5 6.5 6.5 6.5 6.5 6.5 6.6 6.5 6.5 5.8 5.1 4.8 4.8 4.0 3.4 3.4 4.5 4.9 5.2 4.4 4.6 4.5 4.5 5.0 4.8 5.2 5.0 4.6 5.0 5.2 5.5 6.0 5.6 5.2 4.8 4.7 4.8 4.8 4.5
6.5 6.5 6.5 6.5 6.5 6.5 6.5 6.5 6.4 6.4 6.5 6.1 5.6 6.1 5.6 4.7 6.5 6.5 3.5 1.6 2.1 5.1 4.6 6.0 4.7 5.0 5.4 5.0 4.9 4.5 5.8 4.9 4.3 4.4 4.8 4.8 4.8 4.9 5.0 4.9 4.8 4.8 5.1 5.1
6.5 6.5 6.5 6.5 6.5 6.5 6.5 6.5 4.1 6.5 6.5 5.5 4.8 5.1 4.6 6.4 3.9 2.7 1.0 2.3 3.9 2.7 3.7 4.6 4.6 4.4 4.7 4.9 4.8 4.4 3.7 3.7 4.2 4.2 3.9 3.9 3.6 3.5 4.7 4.8 4.9 4.9 4.8 4.9
6.5 6.5 6.5 6.5 6.5 6.5 4.9 5.9 6.5 5.7 5.3 4.9 3.8 4.1 4.1 4.8 5.1 4.3 3.6 3.9 1.6 4.4 5.0 5.2 3.9 4.3 4.7 4.5 4.7 3.9 3.9 4.6 4.7 4.8 4.8 4.6 4.2 4.5 5.7 4.4 4.8 4.4 4.3 4.4
6.5 6.5 6.5 6.5 6.5 4.2 6.4 5.2 5.0 4.2 5.0 5.9 5.0 5.6 5.3 3.5 3.1 2.0 0.4 2.0 3.4 3.5 5.2 4.9 4.4 4.2 4.4 4.7 5.0 5.8 6.5 6.1 5.7 4.9 5.0 5.1 5.2 5.1 4.9 4.7 5.0 5.7 5.3 4.1
6.5 6.0 6.5 6.5 6.5 6.1 5.2 5.5 6.5 5.7 5.3 5.2 6.1 5.6 4.9 4.1 4.0 1.8 1.0 1.3 2.5 5.1 4.5 4.0 4.1 4.3 4.6 4.6 4.8 4.8 5.6 5.9 5.9 5.8 5.2 5.1 4.8 4.7 4.7 5.8 6.0 5.7 5.2 4.9
6.3 6.3 6.5 6.5 6.3 6.2 5.5 6.0 5.9 6.0 6.5 4.8 4.9 4.9 5.0 5.2 4.8 4.6 4.1 3.8 3.6 3.8 4.5 4.6 4.5 4.4 4.8 5.1 5.5 5.7 5.6 5.5 5.3 5.1 5.2 5.1 5.3 5.2 4.9 5.6 4.9 4.6 5.0 4.0
5.8 6.4 6.5 6.5 5.2 4.8 5.1 5.2 6.7 6.1 7.1 6.6 5.6 5.6 5.5 5.0 4.6 4.2 4.4 4.1 4.2 4.1 4.1 4.2 4.8 4.8 5.1 4.7 4.4 4.1 4.1 4.5 4.2 4.8 4.2 4.9 4.8 5.0 5.3 4.7 5.6 5.4 2.8 1.8
Wind_Speed
8 4 10 15 15 16 5 3 6 2 7 6 14 16 10 11 11 15 10 4 9 10 6 7 11 23 12 13 10 8 6 11 11 4 5 3 3 2 3 5 14 14 15 14
6 9 16 17 18 5 3 6 10 5 9 7 14 10 8 4 2 7 12 4 12 10 5 13 18 22 15 16 26 10 7 9 8 7 4 4 4 4 4 4 9 15 18 16
10 15 19 17 14 5 5 6 9 4 6 7 10 6 9 6 2 14 15 14 8 6 6 5 17 22 12 9 15 14 11 10 8 7 4 2 2 3 3 3 4 8 14 14
11 19 18 11 1 3 6 7 8 6 3 3 4 2 4 5 7 10 10 15 3 7 6 6 5 16 13 14 16 14 10 9 7 7 4 6 5 4 6 4 6 7 11 9
15 12 10 4 4 5 9 6 1 4 6 4 3 5 7 7 5 9 6 12 6 9 7 7 8 8 2 14 17 12 7 8 6 7 6 4 4 3 5 5 4 5 7 8
11 8 6 7 7 8 7 4 8 5 3 4 7 6 6 3 3 4 3 6 8 9 8 7 7 8 8 8 10 9 7 6 6 6 6 6 7 7 6 9 3 2 2 3
9 9 8 4 4 6 6 0 4 4 3 5 6 8 2 11 10 9 9 6 8 9 8 8 8 7 8 9 9 8 8 5 4 2 2 5 6 7 9 9 5 6 4 2
7 6 9 7 8 8 7 8 5 4 5 3 10 4 7 18 20 14 14 8 9 10 8 9 7 6 7 7 9 8 8 6 7 6 8 7 8 6 7 10 5 5 5 4
6 9 8 8 6 7 9 5 10 3 5 5 4 4 9 21 24 6 9 8 9 9 9 9 8 7 7 7 8 8 8 6 4 6 6 6 5 9 8 7 6 4 5 4
10 7 12 9 8 9 9 6 6 4 3 3 5 9 11 22 18 5 7 9 9 8 9 9 7 6 5 7 6 8 7 7 7 7 6 3 3 4 5 5 5 4 3 4
7 3 6 3 5 7 4 4 4 6 4 4 1 5 6 23 15 4 9 13 10 9 10 9 8 7 8 7 6 6 5 7 6 7 6 5 0 3 4 4 6 5 4 4
9 4 1 3 8 10 9 5 7 5 4 5 4 5 6 14 13 10 2 9 10 12 12 8 8 7 7 6 4 5 3 2 4 7 6 6 5 2 1 2 4 4 4 5
5 3 2 7 5 10 5 9 9 7 5 4 5 5 13 4 12 13 5 12 12 12 12 12 7 3 7 7 4 4 5 5 6 4 4 5 5 5 6 6 5 7 7 7
5 2 4 7 5 4 6 9 14 4 4 7 10 8 12 15 17 14 11 11 10 14 15 12 8 7 7 6 5 6 6 6 5 6 7 4 4 6 5 6 6 6 7 7
3 2 7 4 5 1 5 5 13 15 4 2 3 10 15 12 10 10 10 10 16 16 14 11 8 8 8 6 6 7 7 6 5 6 6 3 3 1 3 3 4 4 4 5
1 4 6 5 5 1 9 6 14 20 25 1 13 8 6 7 8 8 9 10 12 12 16 14 12 9 8 7 7 6 5 4 5 4 3 3 5 5 5 5 6 5 5 5
5 2 2 2 4 1 4 10 15 15 12 5 3 8 9 8 8 8 9 14 11 10 10 11 12 11 8 8 8 7 6 5 4 3 1 1 1 3 4 5 5 5 5 5
4 5 4 1 3 2 5 2 10 9 14 22 8 13 12 9 8 8 8 10 11 13 11 9 9 8 8 7 7 7 7 6 5 5 4 4 3 1 2 4 6 6 4 5
6 5 3 4 2 4 7 3 3 1 10 11 3 11 11 9 6 8 15 18 16 28 8 7 7 7 7 8 8 7 5 5 5 6 3 1 2 2 3 4 5 6 5 5
16 11 2 3 4 5 3 7 2 7 9 15 7 7 9 7 4 1 5 22 25 14 13 3 5 3 4 4 6 5 3 6 7 6 4 4 4 4 5 6 7 4 4 6
4 5 7 2 2 2 4 7 13 7 7 5 7 5 6 5 5 9 5 10 10 17 7 6 10 8 8 7 7 7 7 6 3 5 6 6 5 6 5 5 3 4 5 6
3 5 2 3 7 5 9 6 5 8 2 8 6 9 11 12 15 14 16 15 19 12 14 7 8 6 6 6 6 6 5 2 3 3 3 4 6 6 7 7 6 6 6 7
3 2 4 2 7 21 18 6 6 6 4 4 6 5 11 12 12 10 8 8 7 5 7 7 7 8 7 7 6 4 3 3 4 4 5 4 6 6 6 7 8 9 7 5
3 4 2 4 2 2 6 5 4 6 7 7 7 14 14 8 10 7 6 5 4 4 8 7 8 7 6 6 7 4 3 2 2 4 5 5 5 7 6 6 7 7 5 5
10 3 8 6 14 1 4 5 6 7 7 12 9 10 8 12 11 10 8 8 8 8 7 7 7 7 7 5 4 4 6 6 5 5 5 5 5 5 5 7 5 4 5 3
13 12 8 5 1 4 4 7 5 7 4 5 8 7 9 10 10 14 10 7 10 10 7 7 7 7 7 8 9 10 11 11 9 8 5 5 4 3 4 5 8 9 11 13
Wind_Direction
224 212 237 240 247 252 191 229 275 311 136 95 58 94 77 8 34 31 139 134 169 226 223 161 120 88 252 142 332 230 167 159 158 155 162 169 197 202 199 199 188 176 178 183
250 222 246 251 256 122 309 259 270 292 132 112 82 34 349 39 323 50 20 185 188 234 253 175 154 157 213 167 192 235 206 172 159 157 167 161 176 219 208 199 204 177 182 182
213 232 236 240 258 162 227 239 262 186 161 156 115 21 347 299 36 34 8 343 143 130 34 188 167 184 193 154 191 206 210 171 166 165 148 180 185 236 191 214 203 201 174 182
228 242 240 247 199 291 231 229 267 353 98 203 130 227 308 287 319 87 140 265 174 106 72 34 46 178 192 199 186 196 182 165 175 170 162 186 210 237 243 199 204 191 171 171
248 241 260 163 265 225 256 296 359 316 313 128 9 90 269 10 353 294 213 255 123 104 97 58 32 43 176 169 175 176 152 154 164 169 182 214 241 240 262 262 199 235 180 175
253 265 245 196 202 251 265 356 322 305 209 303 191 120 294 270 232 288 244 240 120 115 103 83 63 58 55 89 136 148 135 155 171 187 211 234 252 253 266 262 175 124 323 329
286 275 283 177 313 270 259 221 303 323 26 223 64 53 215 9 330 283 285 151 125 117 103 86 67 79 76 84 102 112 121 127 143 142 27 345 337 323 292 257 239 182 174 261
209 266 243 230 188 223 231 191 171 262 182 34 48 339 308 305 322 279 259 134 118 106 111 105 102 91 91 89 86 95 95 86 67 41 37 38 359 324 295 273 228 168 168 155
217 251 242 205 165 190 272 295 241 285 331 105 131 104 329 314 298 345 145 142 139 134 134 140 145 133 124 113 115 118 106 101 96 88 73 42 8 7 354 25 57 100 110 121
259 301 316 178 167 220 177 239 7 340 85 78 153 164 182 228 268 245 197 147 138 136 117 108 105 124 133 128 116 108 135 142 128 102 95 80 33 15 14 40 58 86 139 143
227 186 284 306 166 211 270 273 261 98 85 134 155 243 209 217 229 269 238 169 153 131 114 111 118 108 94 84 97 119 152 158 159 127 124 119 83 8 47 32 358 354 14 324
208 158 118 258 314 328 239 199 181 115 236 141 149 277 233 208 230 255 257 125 118 120 124 126 116 118 106 109 116 114 75 54 134 149 148 157 160 203 211 281 294 288 268 267
213 281 89 354 331 339 337 354 7 130 160 127 129 227 253 211 240 233 214 115 116 127 109 93 72 115 97 88 75 87 53 74 78 157 177 174 168 194 250 272 256 270 273 276
71 244 194 189 183 166 292 346 325 358 86 159 219 140 213 225 214 206 151 144 127 119 123 135 174 109 106 95 71 79 70 63 51 45 39 89 213 232 241 262 278 264 258 262
118 219 83 69 115 93 274 293 295 357 291 148 279 136 165 166 155 149 153 143 132 137 138 143 132 125 113 109 90 77 72 68 59 67 64 50 26 55 245 280 295 304 307 302
213 168 128 185 170 351 285 297 352 348 331 66 93 87 147 150 127 134 132 124 125 134 131 136 134 135 133 133 120 111 113 104 88 74 67 52 33 26 15 0 348 353 357 351
169 185 92 59 91 165 55 8 8 337 299 78 11 168 117 127 132 143 133 139 149 146 139 139 143 138 140 148 152 154 151 131 118 119 147 102 57 40 6 358 357 349 351 343
75 42 47 120 8 150 177 32 7 340 337 336 296 150 146 142 151 155 147 148 148 156 148 147 144 148 168 171 167 170 172 170 186 207 227 242 245 278 354 349 336 334 334 334
49 61 345 131 116 299 322 346 127 216 297 275 194 125 135 153 127 65 77 78 45 346 108 144 160 152 153 166 175 173 179 194 206 227 259 342 20 341 324 321 305 301 309 310
7 359 51 281 133 196 236 190 149 25 318 284 117 131 134 126 126 277 358 94 104 216 267 123 128 152 142 143 77 111 44 30 33 67 45 26 9 351 335 309 297 279 276 283
8 284 194 169 199 82 230 157 85 80 240 313 47 111 97 92 146 149 159 92 62 1 316 58 79 84 74 64 82 77 70 72 64 45 32 13 7 9 342 330 315 308 302 292
249 317 5 86 35 341 310 270 160 198 71 35 86 99 100 93 93 98 83 87 84 96 294 63 72 63 55 52 94 105 101 127 60 34 12 348 340 328 319 305 299 287 284 282
3 60 304 168 185 225 234 101 33 41 33 88 88 107 100 103 117 126 138 134 131 182 80 64 64 65 50 44 54 43 311 16 351 338 330 322 308 295 292 294 300 302 292 275
273 195 210 348 127 171 103 115 96 59 24 28 60 86 96 112 121 127 124 150 198 116 85 82 66 51 33 47 61 66 42 6 319 295 287 286 290 292 286 291 289 284 285 287
206 136 202 260 276 225 15 140 110 92 40 92 74 87 93 90 98 110 101 85 77 74 61 59 48 26 17 30 2 346 334 323 314 301 297 292 278 282 300 292 287 307 303 295
208 187 179 201 178 118 23 21 89 100 105 69 121 101 90 91 93 86 87 79 76 75 61 47 34 34 13 30 36 27 16 9 0 346 327 298 302 323 310 306 301 278 279 291